Stations météo

réclame
Mon MeteoGroup
Angelholm, Suède (2607): Température de l'air & dewpoint: 18.06.2018 01:00:00 - 24.06.2018 01:00:00 (CEST)Angelholm, Suède (2607): Vitesse du vent: 18.06.2018 01:00:00 - 24.06.2018 01:00:00 (CEST)Angelholm, Suède (2607): Direction du vent: 18.06.2018 01:00:00 - 24.06.2018 01:00:00 (CEST)Angelholm, Suède (2607): reduced air pressure: 18.06.2018 01:00:00 - 24.06.2018 01:00:00 (CEST)Angelholm, Suède (2607): visibility: 18.06.2018 01:00:00 - 24.06.2018 01:00:00 (CEST)
Date & Time tt [°C] td [°C] ff [km/h] ff [knt] dd ppp [hPa] vv [km]
24.06.2018 01:00:00 11,9 10,3 11 6 WNW 1015,4 10
24.06.2018 00:00:00 12,2 8,3 4 2 WNW 1015,3 10
23.06.2018 23:00:00 12,6 7,9 4 2 NW 1015,3 10
23.06.2018 22:00:00 13,3 7,9 13 7 WNW 1015,0 10
23.06.2018 21:00:00 15,2 8,2 18 10 WNW 1014,8 10
23.06.2018 20:00:00 16,5 6,3 26 14 WNW 1014,8 10
23.06.2018 19:00:00 17,0 6,5 26 14 W 1014,8 10
23.06.2018 18:00:00 17,2 7,8 26 14 W 1015,0 10
23.06.2018 17:00:00 17,6 7,9 26 14 W 1015,2 10
23.06.2018 16:00:00 16,9 7,5 24 13 W 1015,3 10
23.06.2018 15:00:00 17,3 8,7 28 15 W 1015,5 10
23.06.2018 14:00:00 17,9 7,3 26 14 W 1015,5 10
23.06.2018 13:00:00 17,4 4,4 26 14 W 1015,2 10
23.06.2018 12:00:00 17,8 4,4 22 12 WNW 1014,8 10
23.06.2018 11:00:00 17,7 3,2 21 11 NNW 1014,6 10
23.06.2018 10:00:00 17,2 2,8 18 10 N 1014,3 10
23.06.2018 09:00:00 17,1 3,4 18 10 N 1014,0 10
23.06.2018 08:00:00 16,2 5,8 11 6 NW 1013,5 10
23.06.2018 07:00:00 14,7 10,9 0 0 N 1013,1 10
23.06.2018 06:00:00 11,9 10,1 5 3 - 1012,6 10
23.06.2018 05:00:00 12,7 10,4 5 3 WSW 1012,1 10
23.06.2018 04:00:00 13,9 10,7 9 5 W 1011,8 10
23.06.2018 03:00:00 13,8 10,2 9 5 W 1011,7 10
23.06.2018 02:00:00 13,8 9,6 16 9 W 1011,8 10
23.06.2018 01:00:00 13,9 9,7 21 11 W 1011,7 10
23.06.2018 00:00:00 14,2 9,2 26 14 W 1011,7 10
22.06.2018 23:00:00 14,6 9,6 24 13 W 1011,5 10
22.06.2018 22:00:00 14,9 8,6 11 6 W 1011,5 10
22.06.2018 21:00:00 15,0 6,0 15 8 W 1011,5 10
22.06.2018 20:00:00 15,1 6,6 21 11 WNW 1011,8 10
22.06.2018 19:00:00 15,6 7,6 22 12 W 1011,8 10
22.06.2018 18:00:00 16,1 8,3 18 10 W 1011,7 10
22.06.2018 17:00:00 16,3 7,5 22 12 W 1011,9 10
22.06.2018 16:00:00 17,1 6,3 28 15 W 1011,9 10
22.06.2018 15:00:00 16,8 6,3 31 17 W 1011,8 10
22.06.2018 14:00:00 17,4 8,3 34 18 W 1011,8 10
22.06.2018 13:00:00 17,1 7,2 34 18 W 1011,4 10
22.06.2018 12:00:00 16,7 7,1 37 20 WNW 1011,0 10
22.06.2018 11:00:00 15,7 5,3 31 17 WNW 1010,7 10
22.06.2018 10:00:00 14,9 7,0 31 17 NW 1010,1 10
22.06.2018 09:00:00 14,3 7,6 31 17 NW 1009,4 10
22.06.2018 08:00:00 14,2 8,4 22 12 NW 1008,3 10
22.06.2018 07:00:00 11,9 9,3 15 8 NW 1007,7 10
22.06.2018 06:00:00 11,7 9,4 9 5 W 1007,2 10
22.06.2018 05:00:00 10,1 8,9 4 2 - 1007,2 10
22.06.2018 04:00:00 9,9 8,0 9 5 WNW 1006,2 10
22.06.2018 03:00:00 10,2 7,6 24 13 NW 1006,1 10
22.06.2018 02:00:00 10,1 6,4 34 18 NW 1005,7 4,5
22.06.2018 01:00:00 11,9 9,6 41 22 W 1005,7 8
22.06.2018 00:00:00 12,5 7,8 39 21 W 1005,5 10
21.06.2018 23:00:00 13,3 6,9 39 21 W 1005,8 10
21.06.2018 22:00:00 13,3 6,4 37 20 W 1005,9 10
21.06.2018 21:00:00 13,8 5,9 39 21 W 1005,5 10
21.06.2018 20:00:00 14,0 4,0 37 20 W 1005,6 10
21.06.2018 19:00:00 14,7 3,8 39 21 W 1005,5 10
21.06.2018 18:00:00 14,6 4,0 39 21 W 1005,4 10
21.06.2018 17:00:00 14,7 4,9 41 22 W 1005,1 10
21.06.2018 16:00:00 15,5 4,8 37 20 W 1005,2 10
21.06.2018 15:00:00 15,8 3,9 37 20 W 1005,0 10
21.06.2018 14:00:00 15,5 4,2 34 18 W 1005,1 10
21.06.2018 13:00:00 14,6 5,7 29 16 W 1005,5 10
21.06.2018 12:00:00 14,0 7,1 24 13 W 1005,6 10
21.06.2018 11:00:00 13,8 8,2 26 14 W 1005,5 10
21.06.2018 10:00:00 13,4 8,2 28 15 W 1005,2 10
21.06.2018 09:00:00 13,2 9,1 28 15 W 1006,1 10
21.06.2018 08:00:00 13,4 9,1 26 14 W 1006,2 10
21.06.2018 07:00:00 13,8 9,4 26 14 W 1006,7 10
21.06.2018 06:00:00 14,0 9,2 28 15 W 1007,1 10
21.06.2018 05:00:00 13,8 9,8 35 19 WSW 1007,7 10
21.06.2018 04:00:00 15,2 12,3 31 17 W 1007,8 10
21.06.2018 03:00:00 16,8 13,5 28 15 SW 1008,1 10
21.06.2018 02:00:00 16,8 14,1 24 13 SW 1008,9 10
21.06.2018 01:00:00 16,6 14,8 21 11 SW 1009,7 10
21.06.2018 00:00:00 16,4 14,9 24 13 SW 1010,5 10
20.06.2018 23:00:00 17,7 14,6 22 12 WSW 1010,7 10
20.06.2018 22:00:00 17,7 14,6 26 14 WSW 1011,3 10
20.06.2018 21:00:00 18,0 14,3 29 16 WSW 1011,5 10
20.06.2018 20:00:00 18,6 15,1 26 14 WSW 1011,8 10
20.06.2018 19:00:00 19,9 14,7 26 14 WSW 1012,1 10
20.06.2018 18:00:00 20,5 14,8 29 16 W 1012,8 10
20.06.2018 17:00:00 21,5 15,1 37 20 WSW 1013,1 10
20.06.2018 16:00:00 21,4 15,2 31 17 SW 1013,3 10
20.06.2018 15:00:00 - - 31 17 SW - 10
20.06.2018 14:00:00 19,8 13,9 21 11 S 1014,4 10
20.06.2018 13:00:00 17,9 12,4 22 12 S 1015,7 10
20.06.2018 12:00:00 15,7 10,2 18 10 SSE 1016,7 10
20.06.2018 11:00:00 14,0 9,4 18 10 S 1017,6 10
20.06.2018 10:00:00 14,6 8,3 16 9 S 1018,1 10
20.06.2018 09:00:00 14,1 8,5 22 12 WSW 1018,6 10
20.06.2018 08:00:00 14,8 8,1 18 10 WSW 1018,8 10
20.06.2018 07:00:00 14,5 7,8 16 9 W 1019,0 10
20.06.2018 06:00:00 14,1 7,4 22 12 W 1019,2 10
20.06.2018 05:00:00 13,3 7,1 26 14 W 1018,9 10
20.06.2018 04:00:00 13,6 6,9 28 15 W 1019,1 10
20.06.2018 03:00:00 13,9 6,5 26 14 W 1019,1 10
20.06.2018 02:00:00 14,0 6,6 26 14 W 1019,0 10
20.06.2018 01:00:00 14,4 6,0 26 14 W 1018,9 10
20.06.2018 00:00:00 14,4 6,7 24 13 W 1018,8 10
19.06.2018 23:00:00 14,5 7,3 26 14 W 1018,6 10
19.06.2018 22:00:00 14,7 7,3 26 14 WNW 1018,5 10
19.06.2018 21:00:00 15,6 7,4 29 16 W 1018,0 10
19.06.2018 20:00:00 16,9 7,3 31 17 WNW 1017,9 10
19.06.2018 19:00:00 17,1 6,9 29 16 W 1017,7 10
19.06.2018 18:00:00 17,9 7,0 29 16 WNW 1017,4 35
19.06.2018 17:00:00 18,2 8,7 31 17 WNW 1017,1 10
19.06.2018 16:00:00 18,6 6,8 31 17 W 1016,5 10
19.06.2018 15:00:00 18,9 8,5 35 19 W 1016,2 10
19.06.2018 14:00:00 19,2 9,7 29 16 W 1015,5 10
19.06.2018 13:00:00 19,3 11,3 31 17 W 1015,2 10
19.06.2018 12:00:00 18,7 11,3 29 16 W 1015,1 10
19.06.2018 11:00:00 17,5 11,1 29 16 W 1014,9 10
19.06.2018 10:00:00 17,4 12,1 31 17 W 1014,2 10
19.06.2018 09:00:00 16,6 11,1 31 17 W 1013,8 10
19.06.2018 08:00:00 16,3 10,6 29 16 WSW 1013,5 10
19.06.2018 07:00:00 15,6 10,4 34 18 WSW 1013,3 10
19.06.2018 06:00:00 15,8 9,9 28 15 W 1013,2 10
19.06.2018 05:00:00 15,8 10,8 25 14 W 1012,9 45
19.06.2018 04:00:00 16,1 12,4 25 14 WSW 1013,2 30
19.06.2018 03:00:00 16,1 12,8 25 14 SW 1013,5 27
19.06.2018 02:00:00 16,3 13,0 25 14 SW 1013,6 30
19.06.2018 01:00:00 16,4 13,5 22 12 SW 1013,8 10
19.06.2018 00:00:00 16,5 13,6 24 13 SW 1014,2 10
18.06.2018 23:00:00 16,8 13,9 26 14 SW 1014,3 10
18.06.2018 22:00:00 17,0 13,7 18 10 S 1014,0 10
18.06.2018 21:00:00 17,1 13,4 21 11 SW 1014,3 10
18.06.2018 20:00:00 17,6 12,3 18 10 SSW 1014,5 10
18.06.2018 19:00:00 18,2 11,5 16 9 SSW 1014,8 10
18.06.2018 18:00:00 17,8 11,6 18 10 SW 1015,3 10
18.06.2018 17:00:00 17,9 11,5 21 11 WSW 1015,8 10
18.06.2018 16:00:00 18,7 10,0 18 10 WSW 1015,9 45
18.06.2018 15:00:00 18,8 9,8 18 10 SW 1016,2 10
18.06.2018 14:00:00 18,9 11,0 16 9 W 1016,3 10
18.06.2018 13:00:00 18,5 10,6 16 9 SW 1016,3 10
18.06.2018 12:00:00 19,0 9,2 21 11 SW 1016,4 10
18.06.2018 11:00:00 18,0 10,4 22 12 SW 1016,3 10
18.06.2018 10:00:00 16,8 10,2 26 14 WSW 1016,6 10
18.06.2018 09:00:00 14,8 10,6 21 11 SW 1016,4 10
18.06.2018 08:00:00 14,7 10,9 18 10 SW 1016,1 10
18.06.2018 07:00:00 14,2 10,0 16 9 SSW 1016,3 10
18.06.2018 06:00:00 14,0 9,2 18 10 WSW 1016,4 10
18.06.2018 05:00:00 14,0 8,6 18 10 W 1015,9 10
18.06.2018 04:00:00 14,0 8,0 16 9 W 1015,5 10
18.06.2018 03:00:00 14,4 8,3 21 11 WSW 1015,8 10
18.06.2018 02:00:00 14,9 9,3 22 12 W 1015,5 10
18.06.2018 01:00:00 15,6 8,3 21 11 W 1015,1 10

tt = Température de l'air
td = dewpoint
ff = Vitesse du vent
dd = Direction du vent
ppp = reduced air pressure
vv = visibility

stations d'obs. à proximité